Regional Weather Roundup
Issued by NWS

Home | Current Version | Previous Version | Text Only | Print | Product List | Glossary Off
Versions: 1 2 3 4 5 6 7 8 9 10 11 12 13 14 15 16 17 18 19 20 21 22 23 24 25 26 27 28

000
ASUS45 KSLC 281510
RWRUT

UTAH REGIONAL WEATHER ROUNDUP
NATIONAL WEATHER SERVICE SALT LAKE CITY UT
900 AM MDT SAT MAY 28 2016

UTZ001>011-023>025-281600-

NORTHERN UTAH

CITY           SKY/WX    TMP DP  RH WIND       PRES   REMARKS
BRIGHAM CITY     N/A     53  43  69 CALM      30.05S
HILL AFB       MOSUNNY   56  44  63 E3        30.05R
LOGAN          PTSUNNY   51  46  83 CALM      30.07R
OGDEN          MOSUNNY   56  46  69 CALM      30.05R
PROVO AIRPORT  MOSUNNY   55  39  54 CALM      30.05R
SALT LAKE CITY MOSUNNY   61  44  53 VRB3      30.03R
VERNAL         CLOUDY    55  40  56 E3        30.09R
WENDOVER       SUNNY     57  34  41 CALM      30.05R
HEBER CITY     PTSUNNY   50  41  71 CALM      30.08S
WEST JORDAN    SUNNY     57  45  62 CALM      30.05R

$$

UTZ012>022-026-027-281600-

SOUTHERN/CENTRAL UTAH

CITY           SKY/WX    TMP DP  RH WIND       PRES   REMARKS
BLANDING       SUNNY     59  34  38 SE3       30.18R
BRYCE CANYON   MOSUNNY   56  31  38 CALM      30.16R
CEDAR CITY     MOSUNNY   59  36  42 N5        30.04R
DELTA          SUNNY     57  37  47 S5        30.04R
HANKSVILLE     SUNNY     61  36  39 N5        30.07R
MILFORD        SUNNY     57  37  47 N8        30.04R
MOAB/CYNLANDS  SUNNY     63  39  41 E8        30.04R
PRICE          MOSUNNY   57  32  38 E5        30.09R
ST GEORGE      SUNNY     64  30  27 SW3       29.96R
KANAB          SUNNY     63  36  36 NE3       30.07S

$$

REGIONAL REPORTS     COLORADO/ARIZONA

CITY           SKY/WX    TMP DP  RH WIND       PRES   REMARKS
CRAIG, CO      SUNNY     53  41  63 NE8       30.11S
GRAND JUNCTION SUNNY     56  41  57 SE7       30.09R
RIFLE          SUNNY     52  37  56 CALM      30.13S
MONTROSE       SUNNY     54  35  48 SW3       30.14R
CORTEZ         SUNNY     57  34  41 VRB3      30.11S
PAGE, AZ       SUNNY     65  34  31 CALM      30.01R
GRAND CANYON   SUNNY     62  29  28 CALM      30.12R
KINGMAN        SUNNY     74  30  19 E10       29.94R
FLAGSTAFF      SUNNY     59  30  33 NE9       30.13R

$$

REGIONAL REPORTS    NEVADA/IDAHO/WYOMING

CITY           SKY/WX    TMP DP  RH WIND       PRES   REMARKS
LAS VEGAS, NV  MOSUNNY   75  31  19 CALM      29.82R
ELY            CLOUDY    50  37  61 CALM      30.10R
ELKO           MOSUNNY   50  35  56 CALM      30.08R
POCATELLO, ID  SUNNY     52  30  43 SW15      30.08R
BURLEY         SUNNY     52  30  43 W15G23    30.07R
EVANSTON, WY   CLOUDY    48  36  63 SW10      30.11R
ROCK SPRINGS   SUNNY     50  36  58 W14       30.10R
KEMMERER         N/A     46  36  66 W5        30.13R

$$




USA.gov is the U.S. government's official web portal to all federal, state and local government web resources and services.